Miscellaneous Local Product
Issued by NWS North Platte, NE

Home | Current Version | Previous Version | Graphics & Text | Print | Product List | Glossary On
Versions: 1 2 3 4 5 6 7 8 9 10 11 12 13 14 15 16 17 18 19 20 21 22 23 24 25 26 27 28 29 30 31 32 33 34 35 36 37 38 39 40 41 42 43 44 45 46 47 48 49 50
000
AXUS43 KLBF 251210
MISLBF


WESTERN AND NORTH CENTRAL NEBRASKA HOURLY WEATHER ROUNDUP
NATIONAL WEATHER SERVICE NORTH PLATTE NE
600 AM CST THU DEC 25 2014

***STATIONS NOT REPORTING VARIABLES SUCH AS SKY/WEATHER OR
PRESSURE ARE PROVIDED BY THE NEBRASKA DEPARTMENT OF
ROADS...RAWS...AND APRS NETWORKS...AND ARE NOT UNDER
NATIONAL WEATHER SERVICE QUALITY CONTROL***

...OBSERVATIONS IN AND NEAR THE EASTERN PANHANDLE OF NEBRASKA...

CITY           SKY/WX    TMP DP  RH WIND       PRES   REMARKS
PINE RIDGE     CLOUDY    30  24  78 N7        29.48R WCI  23
CHADRON        CLOUDY    30  24  78 NE7       29.49R WCI  23
ALLIANCE       CLOUDY    28  25  88 NE5       29.41F WCI  23
SIDNEY         MOCLDY    28  22  78 CALM      29.41R
WHITECLAY        N/A     29  23  81 E10         N/A  WCI  19
CRESCENT LAKE    N/A     30  21  68 CALM        N/A
LISCO            N/A     29  23  78 E6          N/A  WCI  23
BIG SPRINGS      N/A     23  21  93 CALM        N/A
$$

...OBSERVATIONS IN NORTH CENTRAL NEBRASKA...

CITY           SKY/WX    TMP DP  RH WIND       PRES   REMARKS
VALENTINE      CLOUDY    30  26  85 W7        29.49R WCI  23
THEDFORD       CLEAR     29  23  79 CALM      29.45S
AINSWORTH      MOCLDY    30  25  82 NW6       29.47S WCI  24
O`NEILL        CLOUDY    29  27  90 S6        29.50R WCI  23
ORD            MOCLDY    26  24  92 SE5       29.50R WCI  20
BROKEN BOW     PTCLDY    26  22  84 CALM      29.47R
BROWNLEE         N/A     34  24  68 E7          N/A  WCI  27
BREWSTER         N/A     29  25  83 S3          N/A
ROSE             N/A     36  29  77 CALM        N/A
COMSTOCK         N/A     33  26  73 CALM        N/A
$$

...OBSERVATIONS IN SOUTHWEST NEBRASKA AND FAR NORTHEAST COLORADO...

CITY           SKY/WX    TMP DP  RH WIND       PRES   REMARKS
WRAY           FAIR      25  22  88 CALM      29.39F
HOLYOKE        FAIR      32  28  86 N12       29.39F WCI  23
IMPERIAL       MOCLDY    26  20  77 VRB3      29.40S
OGALLALA       CLOUDY    22  21  96 CALM      29.42S
NORTH PLATTE   CLEAR     25  20  81 NE6       29.44F WCI  18
MCCOOK         CLEAR     26  21  81 E8        29.42F WCI  18
LEXINGTON      MOCLDY    26  23  87 E7        29.46F WCI  19
PAXTON           N/A     22  20  91 CALM        N/A
GOTHENBURG       N/A     25  20  81 CALM        N/A
CALLAWAY         N/A     29  23  79 N3          N/A
$$

...NORTH PLATTE AREA...

CITY           SKY/WX    TMP DP  RH WIND       PRES   REMARKS
AIRPORT        CLEAR     25  20  81 NE6       29.44F WCI  18
$$

...SOME WEATHER OBSERVATIONS FROM AROUND THE REGION...

CITY           SKY/WX    TMP DP  RH WIND       PRES   REMARKS
DENVER         PTCLDY    40  17  39 S15       29.36F WCI  32
LARAMIE        PTCLDY    28  18  66 W12       29.38F WCI  18
CHEYENNE       MOCLDY    26  18  71 CALM      29.39S
SCOTTSBLUFF    CLOUDY    36  27  69 NE14      29.40F WCI  27
RAPID CITY     LGT SNOW  31  29  92 N10       29.54R FOG     WCI  22
PIERRE         LGT RAIN  33  31  92 N13       29.53S WCI  24
WINNER         CLOUDY    28  23  81 NW9       29.51R WCI  19
SIOUX FALLS    CLOUDY    28  25  88 SE5       29.56R WCI  23
OMAHA          CLOUDY    32  28  85 S12       29.65S WCI  23
GRAND ISLAND   CLOUDY    30  22  72 S6        29.53F WCI  24
KANSAS CITY    PTCLDY    32  27  81 S13       29.76F WCI  22
WICHITA        PTCLDY    35  24  64 S18       29.68F WCI  24
HAYS           CLOUDY    32  16  51 E3        29.51S
LIBERAL        CLOUDY    34  18  51 S10       29.50F WCI  26
GOODLAND       MOCLDY    31  23  72 W6        29.38F WCI  25
$$



USA.gov is the U.S. government's official web portal to all federal, state and local government web resources and services.